Weather History for Macao / Porto, Macao

Change the Weather History Date:

Monday, November 11, 2013

  Actual Average Record
Temperature  
Mean Temperature 45 °F -  
Max Temperature 47 °F 69 °F - ()
Min Temperature 43 °F 63 °F - ()
Degree Days  
Heating Degree Days 20    
Moisture  
Dew Point -    
Average Humidity    
Maximum Humidity    
Minimum Humidity    
Precipitation  
Precipitation 0.00 in - - ()
Sea Level Pressure  
Sea Level Pressure 30.02 in    
Wind  
Wind Speed 26 mph ()    
Max Wind Speed 38 mph    
Max Gust Speed 47 mph    
T = Trace of Precipitation, MM = Missing Value Source: Averaged Metar Reports

Daily Weather History Graph

Daily Weather History Graph

Search for Another Location

Airport:

Trip Planner

Search our weather history database for the weather conditions in past years. The results will help you decide how hot, cold, wet, or windy it might be!

Date:

Astronomy

Nov. 11, 2013 Rise Set
Actual Time 6:35 AM CST 5:44 PM CST
Civil Twilight 6:12 AM CST 6:07 PM CST
Nautical Twilight 5:45 AM CST 6:34 PM CST
Astronomical Twilight 5:18 AM CST 7:01 PM CST
Moon 1:22 PM CST (11/11) 12:30 AM CST (11/11)
Length of Visible Light 11h 55m
Length of Day
11h 08m
First Quarter, 60% of the Moon is Illuminated
Nov 11
First Quarter
Nov 17
Full
Nov 26
Last Quarter
Dec 3
New
Dec 9
First Quarter

Hourly Weather History & Observations

Time (CST) Temp. Dew Point Humidity Pressure Visibility Wind Dir Wind Speed Gust Speed Precip Events Conditions
12:50 AM 47 °F - % 29.79 in - WSW 35.8 mph 47.0 mph -  
1:00 AM - - %  in - Calm Calm - -  
1:50 AM 47 °F - % 29.78 in - WSW 35.8 mph 44.7 mph -  
2:00 AM - - %  in - Calm Calm - -  
2:50 AM 47 °F - % 29.80 in - WSW 33.6 mph 40.3 mph -  
3:00 AM - - %  in - Calm Calm - -  
3:50 AM 47 °F - % 29.81 in - West 38.0 mph 47.0 mph -  
4:00 AM - - %  in - Calm Calm - -  
4:50 AM 46 °F - % 29.85 in - West 35.8 mph 42.5 mph -  
5:00 AM - - %  in - Calm Calm - -  
5:50 AM 46 °F - % 29.89 in - WNW 38.0 mph 47.0 mph -  
6:00 AM - - %  in - Calm Calm - -  
6:50 AM 45 °F - % 29.95 in - WNW 33.6 mph 40.3 mph -  
7:00 AM - - %  in - Calm Calm - -  
7:50 AM 44 °F - % 29.99 in - WNW 35.8 mph 40.3 mph -  
8:50 AM 44 °F - % 30.02 in - WNW 35.8 mph 42.5 mph -  
9:00 AM - - %  in - Calm Calm - -  
9:50 AM 43 °F - % 30.07 in - WNW 29.1 mph 35.8 mph -  
10:50 AM 43 °F - % 30.10 in - WNW 29.1 mph 35.8 mph -  
11:50 AM 44 °F - % 30.11 in - WNW 26.8 mph 33.6 mph -  
12:50 PM 44 °F - % 30.11 in - West 29.1 mph 35.8 mph -  
1:50 PM 43 °F - % 30.13 in - WNW 24.6 mph 29.1 mph -  
2:00 PM - - %  in - Calm Calm - -  
2:50 PM 43 °F - % 30.14 in - WNW 22.4 mph 26.8 mph -  
3:50 PM 43 °F - % 30.13 in - WNW 17.9 mph 20.1 mph -  
4:00 PM - - %  in - Calm Calm - -  
4:50 PM 43 °F - % 30.14 in - NW 13.4 mph 20.1 mph -  
5:00 PM - - %  in - Calm Calm - -  
5:50 PM 43 °F - % 30.14 in - West 13.4 mph 22.4 mph -  
6:00 PM - - %  in - Calm Calm - -  
6:50 PM 44 °F - % 30.12 in - WSW 17.9 mph 24.6 mph -  
7:00 PM - - %  in - Calm Calm - -  
7:50 PM 43 °F - % 30.11 in - SW 17.9 mph 20.1 mph -  
8:00 PM - - %  in - Calm Calm - -  
8:50 PM 44 °F - % 30.11 in - SW 17.9 mph 22.4 mph -  
9:00 PM - - %  in - Calm Calm - -  
9:50 PM 44 °F - % 30.09 in - SW 15.7 mph 20.1 mph -  
10:00 PM - - %  in - Calm Calm - -  
10:50 PM 44 °F - % 30.05 in - South 20.1 mph 24.6 mph -  
11:00 PM - - %  in - Calm Calm - -  
11:50 PM 45 °F - % 30.01 in - SSW 20.1 mph 26.8 mph -